Location: The Saddle
(36.8333°N, 80.3417°W)
Time: 00:04:30
(UTC-04:00)

VELOX 1 - Visible Passes

Search period start: 29 March 2023 00:00
Search period end: 08 April 2023 00:00
Orbit: 618 x 633 km, 98.4° (Epoch: 28 March)

Date Brightness Start Highest point End Pass type
(mag) Time Alt. Az. Time Alt. Az. Time Alt. Az.
29 Mar ? 06:43:25 10° SSE 06:47:44 62° ENE 06:52:02 10° N visible
29 Mar ? 20:09:46 10° N 20:13:56 49° WNW 20:18:05 10° SSW visible
30 Mar ? 20:29:00 10° N 20:32:46 30° WNW 20:36:31 10° SW visible
31 Mar ? 05:47:32 10° E 05:49:50 14° ENE 05:52:09 10° NNE visible
31 Mar ? 20:48:28 10° NNW 20:51:31 19° WNW 20:54:35 10° WSW visible
01 Apr ? 06:05:13 10° ESE 06:08:34 22° ENE 06:11:56 10° NNE visible
01 Apr ? 21:08:31 10° NW 21:10:14 12° WNW 21:11:57 10° W visible
02 Apr ? 06:23:23 10° SE 06:27:20 35° ENE 06:31:17 10° N visible
03 Apr ? 20:08:05 10° N 20:12:17 53° WNW 20:16:29 10° SSW visible
04 Apr ? 20:27:12 10° N 20:31:03 32° WNW 20:34:54 10° SW visible
05 Apr ? 05:46:05 10° E 05:48:07 13° ENE 05:50:10 10° NE visible
05 Apr ? 20:46:33 10° NNW 20:49:45 21° WNW 20:52:58 10° WSW visible
06 Apr ? 06:03:33 10° ESE 06:06:46 21° ENE 06:09:59 10° NNE visible
06 Apr ? 21:06:21 10° NW 21:08:23 13° WNW 21:10:26 10° W visible
07 Apr ? 06:21:36 10° SE 06:25:26 32° ENE 06:29:19 10° N visible
